Location: Embarras
(53.3000°N, 116.9000°W)
Time: 11:36:30
(UTC+00:00)

Oscar 11 - Visible Passes

Search period start: 05 December 2023 00:00
Search period end: 15 December 2023 00:00
Orbit: 605 x 617 km, 97.7° (Epoch: 04 December)

Date Brightness Start Highest point End Pass type
(mag) Time Alt. Az. Time Alt. Az. Time Alt. Az.
08 Dec 10.0 00:19:31 10° WSW 00:21:51 14° W 00:24:11 10° NW visible
09 Dec 10.4 00:35:52 10° W 00:36:38 10° W 00:37:24 10° WNW visible
14 Dec 9.9 00:10:23 10° SW 00:13:10 17° W 00:15:57 10° NW visible
